1486134000.59,55944,11.94,72782.3,-5.77,-42.69,-42.37,0,*57
1486134001.84,55945,11.94,72782.0,-5.77,-42.69,-42.51,0,*56
1486134003.12,55946,11.94,72782.8,-5.77,-42.69,-42.57,0,*53
1486134004.38,55947,11.94,72786.0,-5.77,-42.89,-42.57,0,*5C
1486134005.61,55948,11.94,72786.3,-5.77,-42.89,-42.89,0,*50
1486134006.85,55949,11.94,72790.3,-5.77,-42.75,-42.75,0,*51
1486134008.1,55950,11.94,72780.5,-5.77,-42.75,-42.57,0,*59
1486134009.36,55951,11.94,72782.0,-5.79,-42.69,-42.57,0,*5B
1486134010.57,55952,11.94,72778.0,-5.79,-42.75,-42.51,0,*53
1486134011.82,55953,11.94,72780.5,-5.77,-42.75,-42.57,0,*5A
1486134013.05,55954,11.94,72776.8,-5.79,-42.57,-42.37,0,*55
1486134014.31,55955,11.94,72776.3,-5.77,-42.51,-42.31,0,*5A
1486134015.54,55956,11.94,72776.5,-5.77,-42.37,-42.37,0,*5F
1486134016.78,55957,11.94,72776.3,-5.79,-42.51,-42.19,0,*5C
1486134018.02,55958,11.94,72776.0,-5.79,-42.37,-42.31,0,*59
1486134019.28,55959,11.94,72776.3,-5.77,-42.19,-42.13,0,*5A
1486134020.52,55960,11.94,72780.0,-5.79,-42.19,-41.99,0,*5F
1486134021.78,55961,11.94,72782.8,-5.77,-42.19,-41.99,0,*50
1486134023.01,55962,11.94,72784.0,-5.79,-42.19,-42.13,0,*5C
1486134024.25,55963,11.94,72784.8,-5.79,-42.31,-41.99,0,*56
1486134025.48,55964,11.94,72784.0,-5.79,-42.31,-42.13,0,*50
1486134026.75,55965,11.94,72788.3,-5.79,-42.19,-42.19,0,*51
1486134027.98,55966,11.94,72786.8,-5.79,-42.69,-42.37,0,*59
1486134029.21,55967,11.94,72780.0,-5.79,-42.57,-42.37,0,*55
1486134030.46,55968,11.94,72782.3,-5.79,-42.69,-42.57,0,*51
1486134031.72,55969,11.94,72774.8,-5.79,-42.69,-42.57,0,*50
1486134032.98,55970,12.0,72780.8,-5.79,-42.57,-42.31,0,*55
1486134034.22,55971,11.94,72780.8,-5.79,-42.37,-42.31,0,*52
1486134035.46,55972,11.94,72778.0,-5.79,-42.37,-42.19,0,*5B
1486134036.69,55973,11.94,72772.5,-5.79,-42.19,-42.13,0,*5C
1486134037.95,55974,11.94,72772.5,-5.83,-42.45,-42.19,0,*5D
1486134039.19,55975,11.94,72778.3,-5.79,-42.19,-41.99,0,*5B
1486134040.44,55976,11.94,72776.5,-5.85,-42.25,-42.05,0,*52
1486134041.65,55977,11.94,72774.8,-5.83,-42.25,-41.99,0,*53
1486134042.88,55978,11.94,72774.0,-5.83,-42.25,-42.05,0,*5A
1486134044.11,55979,11.94,72786.3,-5.83,-42.05,-41.87,0,*50
1486134045.34,55980,11.94,72786.3,-5.83,-42.05,-41.87,0,*56
1486134046.63,55981,11.94,72778.3,-5.85,-42.19,-42.19,0,*58
1486134047.84,55982,11.94,72774.5,-5.83,-42.37,-42.25,0,*5E
1486134049.09,55983,11.94,72776.5,-5.83,-42.19,-42.05,0,*51
1486134050.33,55984,11.94,72778.0,-5.83,-42.05,-41.87,0,*52
1486134051.58,55985,11.94,72782.8,-5.85,-42.05,-41.87,0,*55
1486134052.83,55986,11.94,72782.5,-5.83,-42.05,-42.05,0,*59
1486134054.04,55987,11.94,72784.3,-5.83,-42.25,-42.37,0,*5B
1486134055.25,55988,11.94,72776.0,-5.83,-42.63,-42.75,0,*50
1486134056.46,55989,11.94,72780.5,-5.83,-42.63,-42.63,0,*56
1486134057.71,55990,11.94,72778.8,-5.83,-42.45,-42.45,0,*5E
1486134058.96,55991,11.94,72782.8,-5.85,-42.63,-42.57,0,*5E
1486134060.25,55992,11.94,72776.8,-5.85,-42.95,-42.95,0,*5A
1486134061.51,55993,11.94,72786.3,-5.83,-42.95,-42.95,0,*5D
1486134062.77,55994,11.94,72782.3,-5.85,-42.75,-42.83,0,*55
1486134064.04,55995,11.94,72786.0,-5.85,-42.83,-42.83,0,*5D
1486134065.3,55996,11.94,72782.8,-5.85,-42.83,-42.63,0,*50
1486134066.58,55997,11.94,72786.0,-5.85,-42.95,-42.83,0,*58
1486134067.86,55998,11.94,72784.3,-5.85,-42.83,-42.83,0,*50
1486134069.07,55999,11.94,72786.0,-5.87,-43.01,-42.89,0,*52
1486134070.36,56000,11.94,72784.0,-5.85,-42.95,-42.83,0,*5C
1486134071.61,56001,11.94,72786.0,-5.85,-42.75,-42.83,0,*53
1486134072.82,56002,11.94,72786.8,-5.87,-43.01,-42.89,0,*5A
1486134074.04,56003,11.94,72786.5,-5.87,-43.01,-42.89,0,*5B
1486134075.27,56004,11.94,72786.3,-5.87,-42.89,-42.83,0,*57
1486134076.5,56005,11.94,72780.5,-5.87,-42.89,-42.83,0,*56
1486134077.76,56006,11.94,72782.0,-5.89,-42.89,-42.83,0,*5B
1486134078.99,56007,11.94,72780.0,-5.87,-42.89,-42.83,0,*54
1486134080.19,56008,11.94,72780.5,-5.87,-43.15,-43.01,0,*54
1486134081.43,56009,11.94,72774.3,-5.87,-43.29,-43.01,0,*5A
1486134082.66,56010,11.94,72774.8,-5.87,-43.29,-43.01,0,*52
1486134083.87,56011,11.94,72782.5,-5.87,-43.15,-42.89,0,*5D
1486134085.11,56012,11.94,72780.8,-5.89,-43.01,-43.01,0,*54
1486134086.36,56013,11.94,72784.0,-5.89,-43.09,-42.89,0,*5C
1486134087.6,56014,11.94,72784.0,-5.89,-43.01,-43.01,0,*52
1486134088.84,56015,11.94,72780.0,-5.89,-43.01,-42.89,0,*52
1486134090.08,56016,11.94,72778.5,-5.89,-43.01,-42.89,0,*51
1486134091.34,56017,12.0,72778.8,-5.89,-43.09,-42.89,0,*58
1486134092.57,56018,12.0,72778.3,-5.89,-43.01,-42.89,0,*5F
1486134093.84,56019,11.94,72776.5,-5.89,-43.01,-42.69,0,*50
1486134095.1,56020,11.94,72778.5,-5.91,-43.09,-42.95,0,*58
1486134096.35,56021,11.94,72772.3,-5.91,-43.09,-42.75,0,*57
1486134097.61,56022,11.94,72776.0,-5.93,-43.01,-42.83,0,*57
1486134098.9,56023,11.94,72772.8,-5.93,-42.95,-42.83,0,*5A
1486134100.14,56024,11.94,72774.3,-5.93,-42.75,-42.63,0,*5D
1486134101.37,56025,11.94,72784.3,-5.91,-42.57,-42.37,0,*5F
1486134102.6,56026,11.94,72788.0,-5.91,-42.57,-42.51,0,*5C
1486134103.86,56027,11.94,72780.5,-5.91,-42.69,-42.57,0,*56
1486134105.12,56028,11.94,72780.8,-5.91,-42.69,-42.69,0,*54
1486134106.36,56029,11.94,72780.3,-5.93,-42.75,-42.75,0,*57
1486134107.62,56030,11.94,72778.3,-5.93,-42.83,-42.63,0,*51
1486134108.86,56031,11.94,72782.8,-5.91,-42.75,-42.69,0,*51
1486134110.09,56032,11.94,72780.8,-5.91,-42.89,-42.69,0,*51
1486134111.32,56033,11.94,72776.5,-5.91,-42.89,-42.69,0,*50
1486134112.59,56034,11.94,72780.8,-5.93,-42.83,-42.75,0,*52
1486134113.81,56035,11.94,72782.3,-5.95,-42.75,-42.63,0,*5B
1486134115.02,56036,11.94,72776.0,-5.95,-42.75,-42.63,0,*58
1486134116.28,56037,11.94,72772.0,-5.93,-42.75,-42.57,0,*58
1486134117.52,56038,11.94,72770.3,-5.93,-42.75,-42.63,0,*50
1486134118.74,56039,11.94,72774.3,-5.95,-42.75,-42.63,0,*57
1486134120.0,56040,12.0,72778.5,-5.95,-42.57,-42.45,0,*5D
1486134121.23,56041,11.94,72774.5,-5.95,-42.45,-42.37,0,*5A
1486134122.46,56042,12.0,72780.3,-5.95,-42.57,-42.37,0,*5A
1486134123.73,56043,11.94,72772.5,-5.95,-42.45,-42.19,0,*54
1486134124.96,56044,11.94,72776.5,-5.97,-42.25,-42.19,0,*57
1486134126.2,56045,11.94,72778.0,-5.95,-42.37,-42.05,0,*5A
1486134127.41,56046,11.94,72778.5,-5.95,-42.37,-42.37,0,*58
1486134128.62,56047,11.94,72780.5,-5.95,-42.37,-42.37,0,*59
1486134129.87,56048,11.94,72784.5,-5.95,-42.57,-42.45,0,*55
1486134131.1,56049,11.94,72782.5,-5.97,-42.45,-42.25,0,*53
1486134132.36,56050,11.94,72780.8,-5.95,-42.45,-42.19,0,*56
1486134133.59,56051,11.94,72784.5,-5.97,-42.25,-42.05,0,*5E
1486134134.83,56052,11.94,72784.8,-5.95,-42.37,-42.19,0,*51
1486134136.04,56053,11.94,72782.0,-5.95,-42.37,-42.25,0,*5F
1486134137.25,56054,11.94,72776.5,-5.97,-42.37,-42.37,0,*59
1486134138.45,56055,11.94,72780.0,-5.97,-42.37,-42.37,0,*58
1486134139.66,56056,12.0,72780.5,-5.95,-42.37,-42.37,0,*59
1486134140.86,56057,11.94,72778.5,-5.97,-42.37,-42.25,0,*59
1486134142.06,56058,11.94,72772.5,-5.97,-42.37,-42.25,0,*56
1486134143.29,56059,11.94,72774.3,-5.97,-42.45,-42.25,0,*52
1486134144.52,56060,11.94,72776.0,-5.97,-42.45,-42.25,0,*58
1486134145.75,56061,11.94,72780.5,-5.97,-42.45,-42.37,0,*5A
1486134147.0,56062,11.94,72782.5,-5.99,-42.51,-42.45,0,*57
1486134148.25,56063,11.94,72778.8,-6.01,-42.45,-42.45,0,*51
1486134149.53,56064,11.94,72780.5,-5.99,-42.45,-42.31,0,*57
1486134150.78,56065,11.94,72780.0,-5.99,-42.45,-42.13,0,*56
1486134152.06,56066,11.94,72782.3,-5.99,-42.45,-42.31,0,*55
1486134153.29,56067,11.94,72782.5,-6.01,-42.31,-42.25,0,*50
1486134154.52,56068,11.94,72780.3,-6.01,-42.31,-42.25,0,*5F
1486134155.73,56069,12.0,72780.8,-6.01,-42.25,-42.25,0,*5B
1486134157.02,56070,11.94,72782.0,-5.99,-42.31,-42.31,0,*51
1486134158.25,56071,11.94,72778.3,-6.01,-42.45,-42.51,0,*57
1486134159.48,56072,11.94,72780.3,-6.01,-42.45,-42.51,0,*54
1486134160.71,56073,11.94,72780.5,-6.01,-42.45,-42.63,0,*54
1486134161.96,56074,11.94,72778.3,-6.01,-42.45,-42.69,0,*59
1486134163.19,56075,11.94,72780.8,-6.05,-42.57,-42.89,0,*51
1486134164.45,56076,11.94,72780.8,-6.05,-42.69,-42.95,0,*52
1486134165.69,56077,11.94,72782.8,-6.05,-42.75,-43.09,0,*5A
1486134166.92,56078,11.94,72780.3,-6.05,-42.83,-43.15,0,*51
1486134168.18,56079,11.94,72782.8,-6.07,-42.95,-43.01,0,*50
1486134169.43,56080,12.0,72784.5,-6.07,-43.01,-43.01,0,*5A
1486134170.7,56081,11.94,72780.8,-6.07,-43.01,-42.95,0,*57
1486134171.93,56082,11.94,72786.0,-6.07,-43.15,-43.01,0,*5D
1486134173.13,56083,11.94,72780.0,-6.05,-43.15,-43.15,0,*5B
1486134174.41,56084,11.94,72782.8,-6.07,-43.21,-43.21,0,*5E
1486134175.67,56085,11.94,72778.5,-6.09,-43.21,-43.09,0,*5B
1486134176.91,56086,11.94,72780.5,-6.09,-43.01,-42.95,0,*5E
1486134178.13,56087,11.94,72782.0,-6.09,-43.01,-43.01,0,*53
1486134179.37,56088,11.94,72778.0,-6.09,-43.01,-42.95,0,*50
1486134180.61,56089,11.94,72778.5,-6.09,-43.01,-42.95,0,*51
1486134181.89,56090,11.94,72782.5,-6.11,-43.21,-43.09,0,*56
1486134183.1,56091,12.0,72784.8,-6.09,-43.15,-43.01,0,*51
1486134184.36,56092,11.94,72780.5,-6.11,-43.01,-42.83,0,*55
1486134185.6,56093,11.94,72778.5,-6.11,-42.89,-42.89,0,*5F
1486134186.86,56094,11.94,72776.8,-6.11,-43.09,-42.89,0,*51
1486134188.14,56095,11.94,72778.5,-6.11,-43.21,-43.09,0,*53
1486134189.36,56096,11.94,72780.3,-6.09,-43.01,-43.01,0,*53
1486134190.59,56097,12.0,72784.8,-6.11,-43.01,-42.89,0,*5A
1486134191.84,56098,11.94,72780.3,-6.11,-43.01,-43.01,0,*54
1486134193.08,56099,11.94,72780.0,-6.11,-43.01,-43.01,0,*55
1486134194.34,56100,12.0,72784.8,-6.11,-43.09,-43.01,0,*5C
1486134195.6,56101,11.94,72786.5,-6.13,-43.09,-43.09,0,*57
1486134196.82,56102,11.94,72782.0,-6.13,-43.01,-43.01,0,*54
1486134198.06,56103,11.94,72784.0,-6.13,-43.09,-43.01,0,*5D
1486134199.32,56104,11.94,72782.8,-6.13,-43.09,-43.09,0,*52
1486134200.54,56105,11.94,72782.0,-6.13,-43.01,-43.01,0,*53
1486134201.8,56106,11.94,72780.8,-6.13,-43.09,-43.09,0,*50
1486134203.04,56107,11.94,72780.0,-6.13,-43.09,-42.89,0,*58
1486134204.25,56108,11.94,72776.5,-6.13,-42.89,-42.89,0,*5E
1486134205.48,56109,11.94,72776.3,-6.13,-42.89,-42.83,0,*55
1486134206.72,56110,11.94,72778.0,-6.13,-42.89,-42.83,0,*5D
1486134207.95,56111,11.94,72778.5,-6.13,-42.89,-42.69,0,*58
1486134209.19,56112,11.94,72778.5,-6.17,-42.95,-42.89,0,*5C
1486134210.43,56113,11.94,72776.3,-6.17,-42.95,-42.75,0,*5E
1486134211.67,56114,11.94,72772.8,-6.17,-42.95,-42.75,0,*59
1486134212.92,56115,11.94,72778.5,-6.17,-42.95,-42.75,0,*58
1486134214.16,56116,11.94,72782.5,-6.17,-43.09,-42.75,0,*5F
1486134215.4,56117,11.94,72782.0,-6.17,-42.95,-42.75,0,*5A
1486134216.61,56118,11.94,72784.5,-6.17,-42.89,-42.75,0,*58
1486134217.85,56119,12.0,72782.0,-6.17,-43.09,-42.89,0,*53
1486134219.13,56120,11.94,72782.3,-6.19,-43.21,-42.95,0,*50
1486134220.38,56121,12.0,72782.0,-6.17,-42.95,-42.75,0,*5F
1486134221.61,56122,11.94,72778.3,-6.17,-43.09,-42.89,0,*5B
1486134222.85,56123,11.94,72776.8,-6.17,-43.09,-42.89,0,*5A
1486134224.09,56124,11.94,72776.5,-6.19,-43.01,-43.01,0,*5A
1486134225.36,56125,12.0,72782.3,-6.19,-43.01,-42.83,0,*50
1486134226.62,56126,11.94,72776.5,-6.19,-43.01,-42.83,0,*53
1486134227.89,56127,12.0,72782.3,-6.19,-43.01,-42.83,0,*52
1486134229.16,56128,12.0,72780.8,-6.19,-43.15,-42.95,0,*5F
1486134230.43,56129,11.94,72776.8,-6.19,-43.01,-42.95,0,*5B
1486134231.67,56130,11.94,72774.5,-6.21,-43.01,-42.95,0,*58
1486134232.91,56131,11.94,72776.0,-6.21,-43.01,-42.83,0,*5E
1486134234.17,56132,11.94,72778.0,-6.21,-42.95,-42.83,0,*51
1486134235.43,56133,11.94,72776.8,-6.21,-42.83,-42.83,0,*57
1486134236.66,56134,11.94,72780.8,-6.23,-42.89,-42.89,0,*52
1486134237.93,56135,11.94,72778.3,-6.21,-42.95,-42.95,0,*51
1486134239.17,56136,11.94,72786.5,-6.21,-43.01,-42.95,0,*5E
1486134240.43,56137,11.94,72782.0,-6.23,-43.09,-43.01,0,*59
1486134241.7,56138,11.94,72780.5,-6.23,-43.09,-43.01,0,*56
1486134242.94,56139,11.94,72784.8,-6.21,-43.01,-42.83,0,*56
1486134244.2,56140,11.94,72786.0,-6.23,-43.09,-42.89,0,*58
1486134245.46,56141,11.94,72786.8,-6.23,-43.01,-42.69,0,*5F
1486134246.73,56142,11.94,72786.0,-6.23,-43.01,-42.83,0,*58
1486134247.98,56143,11.94,72776.8,-6.23,-42.89,-42.83,0,*58
1486134249.22,56144,11.94,72778.5,-6.23,-43.01,-42.89,0,*54
1486134250.48,56145,11.94,72772.3,-6.23,-43.09,-42.89,0,*5D
1486134251.75,56146,11.94,72770.3,-6.23,-43.09,-43.01,0,*5F
1486134252.98,56147,11.94,72772.3,-6.23,-42.89,-43.01,0,*57
1486134254.21,56148,11.94,72776.8,-6.25,-42.89,-42.83,0,*55
1486134255.45,56149,11.94,72778.8,-6.25,-42.89,-42.69,0,*50
1486134256.71,56150,11.94,72778.5,-6.29,-42.95,-42.75,0,*54
1486134257.96,56151,11.94,72780.3,-6.29,-42.89,-42.83,0,*51
1486134259.22,56152,12.0,72782.0,-6.25,-42.83,-42.69,0,*50
1486134260.46,56153,11.94,72778.8,-6.25,-42.89,-42.83,0,*5F
1486134261.69,56154,11.94,72780.3,-6.25,-42.89,-42.69,0,*5C
1486134262.95,56155,11.94,72780.0,-6.29,-42.95,-42.89,0,*52
1486134264.23,56156,11.94,72774.8,-6.29,-43.09,-42.95,0,*58
1486134265.47,56157,11.94,72776.8,-6.25,-42.89,-42.83,0,*5B
1486134266.73,56158,11.94,72778.5,-6.29,-42.95,-42.75,0,*5C
1486134267.94,56159,12.0,72780.5,-6.25,-42.89,-42.63,0,*5B
1486134269.23,56160,11.94,72780.0,-6.29,-42.95,-42.69,0,*5A
1486134270.49,56161,11.94,72780.5,-6.33,-42.95,-42.63,0,*5A
1486134271.7,56162,11.94,72780.3,-6.31,-42.89,-42.75,0,*51
1486134272.98,56163,11.94,72776.5,-6.33,-42.83,-42.57,0,*58
1486134274.23,56164,11.94,72776.5,-6.33,-42.63,-42.57,0,*51
1486134275.48,56165,11.94,72778.3,-6.31,-42.69,-42.57,0,*58
1486134276.7,56166,12.0,72780.5,-6.31,-42.89,-42.69,0,*58
1486134277.97,56167,11.94,72776.5,-6.33,-42.95,-42.75,0,*5B
1486134279.25,56168,11.94,72774.0,-6.33,-42.95,-42.83,0,*5D
1486134280.54,56169,11.94,72776.8,-6.33,-42.95,-42.83,0,*5C
1486134281.77,56170,11.94,72780.0,-6.35,-42.83,-42.63,0,*5B
1486134283.04,56171,11.94,72778.8,-6.33,-42.95,-42.75,0,*5C
1486134284.3,56172,11.94,72782.0,-6.37,-43.01,-42.83,0,*5E
1486134285.55,56173,11.94,72782.5,-6.37,-42.89,-42.69,0,*5A
1486134286.76,56174,11.94,72784.5,-6.35,-42.63,-42.63,0,*51
1486134288.04,56175,11.94,72784.8,-6.37,-42.69,-42.69,0,*52
1486134289.26,56176,11.94,72780.3,-6.37,-42.89,-43.01,0,*50
1486134290.49,56177,11.94,72778.0,-6.37,-42.89,-42.89,0,*50
1486134291.74,56178,12.0,72782.8,-6.37,-42.89,-42.69,0,*51
1486134293.02,56179,11.94,72782.5,-6.37,-42.83,-42.83,0,*5E
1486134294.25,56180,11.94,72782.8,-6.37,-43.01,-43.01,0,*58
1486134295.54,56181,11.94,72778.0,-6.41,-43.09,-42.95,0,*5C
1486134296.8,56182,11.94,72778.3,-6.39,-43.09,-43.09,0,*54
1486134298.07,56183,11.94,72782.3,-6.39,-42.95,-42.95,0,*55
1486134299.31,56184,11.94,72786.8,-6.39,-42.95,-42.75,0,*5C
1486134300.52,56185,11.94,72788.5,-6.39,-42.89,-42.89,0,*53
1486134301.81,56186,11.94,72788.0,-6.41,-42.95,-42.95,0,*5F
1486134303.04,56187,11.94,72782.5,-6.41,-42.89,-42.89,0,*5E
1486134304.3,56188,11.94,72784.8,-6.41,-42.95,-42.89,0,*5C
1486134305.56,56189,11.94,72788.0,-6.43,-42.95,-42.83,0,*55
1486134306.81,56190,11.94,72790.3,-6.41,-42.95,-42.89,0,*55
1486134308.08,56191,11.94,72788.3,-6.45,-42.95,-42.75,0,*53
1486134309.33,56192,11.94,72790.8,-6.43,-42.83,-42.69,0,*5C
1486134310.56,56193,11.94,72776.0,-6.43,-42.75,-42.69,0,*54
1486134311.82,56194,11.94,72764.5,-6.43,-42.69,-42.69,0,*5E
1486134313.05,56195,11.94,72772.3,-6.43,-42.75,-42.69,0,*52
1486134314.26,56196,11.94,72774.0,-6.43,-42.75,-42.75,0,*5C
1486134315.53,56197,11.94,72774.3,-6.45,-42.95,-42.75,0,*55
1486134316.78,56198,11.94,72776.0,-6.43,-42.83,-42.83,0,*52
1486134318.03,56199,11.94,72772.5,-6.43,-42.83,-42.69,0,*57
1486134319.31,56200,11.94,72772.3,-6.45,-42.83,-42.69,0,*52
1486134320.57,56201,11.94,72774.5,-6.45,-42.75,-42.69,0,*5A
1486134321.8,56202,11.94,72782.8,-6.45,-42.75,-42.75,0,*54
1486134323.04,56203,11.94,72776.3,-6.47,-42.75,-42.69,0,*5A
1486134324.29,56204,11.94,72776.0,-6.47,-42.69,-42.57,0,*5D
1486134325.55,56205,11.94,72776.3,-6.47,-42.69,-42.69,0,*51
1486134326.83,56206,11.94,72770.8,-6.45,-42.69,-42.69,0,*50
1486134328.08,56207,11.94,72770.8,-6.45,-42.69,-42.51,0,*5A
1486134329.34,56208,11.94,72772.0,-6.47,-42.69,-42.57,0,*51
1486134330.59,56209,11.94,72776.8,-6.47,-42.69,-42.57,0,*50
1486134331.85,56210,11.94,72772.0,-6.47,-42.69,-42.69,0,*55
1486134333.06,56211,11.94,72776.3,-6.47,-42.75,-42.63,0,*53
1486134334.28,56212,11.94,72780.3,-6.47,-42.51,-42.63,0,*56
1486134335.51,56213,11.94,72778.8,-6.51,-42.57,-42.63,0,*56
1486134336.74,56214,11.94,72782.3,-6.47,-42.51,-42.57,0,*57
1486134337.95,56215,11.94,72776.8,-6.51,-42.63,-42.63,0,*57
1486134339.16,56216,11.94,72780.3,-6.51,-42.63,-42.63,0,*54
1486134340.37,56217,11.94,72780.3,-6.51,-42.63,-42.75,0,*52
1486134341.58,56218,11.94,72772.0,-6.51,-42.63,-42.63,0,*5A
1486134342.81,56219,11.94,72770.5,-6.51,-42.63,-42.83,0,*55
1486134344.04,56220,11.94,72772.0,-6.51,-42.63,-42.83,0,*5F
1486134345.27,56221,11.94,72760.8,-6.53,-42.89,-42.89,0,*52
1486134346.56,56222,11.94,72762.0,-6.53,-42.83,-42.95,0,*56
1486134347.79,56223,11.94,72762.8,-6.53,-42.63,-42.89,0,*54
1486134349.07,56224,11.94,72762.0,-6.53,-42.69,-42.83,0,*53
1486134350.3,56225,11.94,72762.0,-6.53,-42.51,-42.51,0,*56
1486134351.59,56226,11.94,72766.3,-6.53,-42.05,-42.31,0,*52
1486134352.82,56227,11.94,72764.3,-6.53,-41.73,-41.73,0,*54
1486134354.08,56228,11.94,72764.5,-6.55,-42.31,-42.83,0,*54
1486134355.33,56229,11.94,72758.0,-6.53,-42.63,-42.45,0,*5E
1486134356.59,56230,11.94,72764.8,-6.55,-42.31,-42.69,0,*59
1486134357.85,56231,11.94,72774.3,-6.55,-42.69,-42.69,0,*55
1486134359.09,56232,11.94,72766.8,-6.55,-42.69,-42.89,0,*58
1486134360.32,56233,11.94,72768.3,-6.55,-42.83,-42.89,0,*5D
1486134361.58,56234,11.94,72768.3,-6.55,-42.83,-42.83,0,*50
1486134362.81,56235,11.94,72764.8,-6.55,-42.89,-42.69,0,*5F
1486134364.05,56236,11.94,72768.3,-6.53,-42.63,-42.63,0,*54
1486134365.29,56237,11.94,72770.5,-6.57,-42.75,-42.75,0,*51
1486134366.53,56238,11.94,72766.3,-6.55,-42.69,-42.63,0,*56
1486134367.74,56239,11.94,72756.5,-6.55,-42.63,-42.63,0,*5D
1486134369.03,56240,11.94,72766.0,-6.57,-42.69,-42.69,0,*51
1486134370.29,56241,11.94,72768.5,-6.57,-42.57,-42.51,0,*56
1486134371.52,56242,11.94,72766.3,-6.55,-42.51,-42.45,0,*54
1486134372.74,56243,11.94,72762.5,-6.55,-42.63,-42.51,0,*51
1486134373.97,56244,11.94,72772.5,-6.55,-42.83,-42.63,0,*59
1486134375.21,56245,11.94,72774.3,-6.55,-42.69,-42.51,0,*5D
1486134376.42,56246,11.94,72766.3,-6.55,-42.51,-42.25,0,*56
1486134377.66,56247,11.94,72766.5,-6.55,-42.45,-42.25,0,*52
1486134378.89,56248,11.94,72764.0,-6.55,-42.45,-42.25,0,*5D
1486134380.13,56249,11.94,72770.5,-6.55,-42.31,-42.13,0,*5A
1486134381.37,56250,11.94,72766.8,-6.55,-42.31,-42.25,0,*57
1486134382.6,56251,11.94,72766.0,-6.55,-42.45,-42.25,0,*55
1486134383.84,56252,11.94,72772.0,-6.55,-42.45,-42.63,0,*54
1486134385.13,56253,11.94,72770.8,-6.57,-42.69,-42.69,0,*53
1486134386.41,56254,11.94,72760.0,-6.57,-42.57,-42.57,0,*54
1486134387.65,56255,11.94,72770.3,-6.57,-42.51,-42.75,0,*53
1486134388.94,56256,11.94,72774.0,-6.57,-42.57,-42.69,0,*5B
1486134390.19,56257,11.94,72772.0,-6.59,-42.57,-42.69,0,*54
1486134391.41,56258,11.94,72774.8,-6.59,-42.37,-42.51,0,*56
1486134392.67,56259,11.94,72772.8,-6.57,-42.37,-42.57,0,*5F
1486134393.91,56260,11.94,72778.8,-6.59,-42.57,-42.75,0,*5D
1486134395.17,56261,11.94,72784.3,-6.57,-42.51,-42.69,0,*59
1486134396.4,56262,11.94,72782.3,-6.59,-42.51,-42.57,0,*59
1486134397.64,56263,11.94,72782.5,-6.57,-42.51,-42.51,0,*50
1486134398.88,56264,11.94,72778.5,-6.59,-42.31,-42.37,0,*5F
1486134400.09,56265,11.94,72778.5,-6.59,-42.37,-42.37,0,*58
1486134401.33,56266,11.94,72776.8,-6.57,-42.37,-42.51,0,*55
1486134402.54,56267,11.94,72774.5,-6.59,-42.51,-42.51,0,*5A
1486134403.77,56268,11.94,72778.8,-6.59,-42.51,-42.57,0,*53
1486134405.03,56269,11.94,72774.3,-6.59,-42.57,-42.57,0,*54
1486134406.27,56270,11.94,72774.3,-6.59,-42.69,-42.51,0,*57
1486134407.48,56271,11.94,72772.3,-6.59,-42.51,-42.51,0,*5D
1486134408.76,56272,11.94,72774.5,-6.57,-42.57,-42.57,0,*50
1486134410.02,56273,11.94,72774.5,-6.57,-42.57,-42.51,0,*57
1486134411.24,56274,11.94,72772.8,-6.59,-42.51,-42.51,0,*58
1486134412.48,56275,11.94,72774.8,-6.57,-42.51,-42.51,0,*57
1486134413.71,56276,11.94,72766.0,-6.59,-42.57,-42.51,0,*5C
1486134414.97,56277,11.94,72770.0,-6.57,-42.57,-42.51,0,*53
1486134416.23,56278,11.94,72768.5,-6.59,-42.69,-42.57,0,*59
1486134417.44,56279,11.94,72774.8,-6.59,-42.51,-42.37,0,*55
1486134418.68,56280,11.94,72774.8,-6.59,-42.51,-42.19,0,*5F
1486134419.92,56281,11.94,72776.0,-6.59,-42.31,-42.13,0,*52
1486134421.15,56282,11.94,72774.8,-6.59,-42.31,-42.13,0,*51
1486134422.41,56283,11.94,72778.0,-6.59,-42.19,-41.93,0,*51
1486134423.65,56284,11.94,72776.8,-6.59,-42.19,-42.13,0,*5D
1486134424.92,56285,11.94,72776.8,-6.59,-42.31,-42.19,0,*5C
1486134426.16,56286,11.94,72782.5,-6.59,-42.37,-42.19,0,*59
1486134427.39,56287,11.94,72776.3,-6.57,-42.51,-42.37,0,*5A
1486134428.63,56288,11.94,72774.5,-6.59,-42.57,-42.51,0,*5D
1486134429.86,56289,11.94,72776.5,-6.59,-42.57,-42.51,0,*5C
1486134431.09,56290,11.94,72772.3,-6.59,-42.57,-42.37,0,*54
1486134432.32,56291,11.94,72774.5,-6.59,-42.57,-42.37,0,*55
1486134433.56,56292,11.94,72766.8,-6.59,-42.57,-42.51,0,*56
1486134434.77,56293,11.94,72768.5,-6.61,-42.63,-42.63,0,*5A
1486134435.97,56294,11.94,72764.8,-6.61,-42.63,-42.63,0,*5D
1486134437.21,56295,11.94,72768.8,-6.63,-42.75,-42.75,0,*5E
1486134438.47,56296,11.94,72770.8,-6.63,-42.83,-42.75,0,*54
1486134439.75,56297,11.94,72778.8,-6.63,-42.57,-42.57,0,*5C
1486134440.98,56298,11.94,72780.3,-6.61,-42.57,-42.63,0,*56
1486134442.24,56299,11.94,72776.0,-6.63,-42.63,-42.57,0,*55
1486134443.51,56300,11.94,72774.5,-6.63,-42.57,-42.57,0,*53
1486134444.77,56301,11.94,72774.3,-6.63,-42.57,-42.63,0,*55
1486134446.02,56302,11.94,72768.3,-6.63,-42.63,-42.57,0,*56
1486134447.26,56303,11.94,72768.0,-6.63,-42.63,-42.63,0,*50
1486134448.52,56304,11.94,72768.8,-6.65,-42.69,-42.69,0,*51
1486134449.78,56305,11.94,72770.8,-6.65,-42.69,-42.69,0,*50
1486134451.02,56306,11.94,72768.5,-6.65,-42.51,-42.31,0,*55
1486134452.27,56307,11.94,72772.5,-6.65,-42.45,-42.45,0,*52
1486134453.5,56308,11.94,72778.0,-6.65,-42.45,-42.13,0,*5E
1486134454.74,56309,11.94,72772.3,-6.67,-42.25,-42.25,0,*5E
1486134456.03,56310,11.94,72772.0,-6.67,-42.45,-42.45,0,*56
1486134457.26,56311,11.94,72772.0,-6.65,-42.45,-42.25,0,*53
1486134458.52,56312,11.94,72776.8,-6.67,-42.25,-42.05,0,*56
1486134459.78,56313,11.94,72780.8,-6.65,-41.93,-41.93,0,*57
1486134461.01,56314,11.94,72782.3,-6.65,-42.31,-42.25,0,*55
1486134462.25,56315,11.94,72778.0,-6.65,-42.31,-42.25,0,*54
1486134463.54,56316,11.94,72778.3,-6.67,-42.45,-42.31,0,*53
1486134464.8,56317,11.94,72776.3,-6.67,-42.51,-42.45,0,*54
1486134466.06,56318,11.94,72778.3,-6.69,-42.69,-42.69,0,*50
1486134467.31,56319,11.94,72772.8,-6.69,-42.57,-42.57,0,*51
1486134468.55,56320,11.94,72774.5,-6.69,-42.69,-42.51,0,*50
1486134469.78,56321,11.94,72776.3,-6.69,-42.57,-42.51,0,*5C
1486134470.99,56322,11.94,72770.5,-6.69,-42.51,-42.37,0,*59
1486134472.19,56323,11.94,72774.8,-6.69,-42.51,-42.37,0,*58
1486134473.43,56324,11.94,72776.3,-6.69,-42.57,-42.51,0,*59
1486134474.64,56325,11.94,72772.0,-6.73,-42.51,-42.37,0,*55
1486134475.88,56326,11.94,72770.5,-6.69,-42.51,-42.19,0,*51
1486134477.11,56327,11.94,72764.0,-6.73,-42.57,-42.37,0,*51
1486134478.34,56328,11.94,72766.0,-6.69,-42.57,-42.37,0,*55
1486134479.59,56329,11.94,72774.3,-6.73,-42.57,-42.57,0,*59
1486134480.8,56330,11.94,72768.8,-6.69,-42.51,-42.51,0,*5A
1486134482.04,56331,11.94,72776.0,-6.69,-42.57,-42.51,0,*5D
1486134483.28,56332,11.94,72780.0,-6.69,-42.51,-42.31,0,*5E
1486134484.53,56333,11.94,72776.3,-6.75,-42.63,-42.45,0,*50
1486134485.81,56334,11.94,72780.8,-6.75,-42.57,-42.45,0,*50
1486134487.09,56335,11.94,72774.3,-6.75,-42.57,-42.57,0,*52
1486134488.35,56336,11.94,72764.8,-6.75,-42.57,-42.37,0,*57
1486134489.58,56337,11.94,72768.5,-6.77,-42.57,-42.37,0,*54
1486134490.83,56338,11.94,72756.5,-6.75,-42.57,-42.37,0,*59
1486134492.07,56339,11.94,72764.3,-6.77,-42.45,-42.25,0,*5A
1486134493.31,56340,11.94,72764.5,-6.77,-42.25,-42.19,0,*5D
1486134494.6,56341,11.94,72760.3,-6.75,-42.19,-42.19,0,*51
1486134495.86,56342,11.94,72764.8,-6.75,-41.99,-42.05,0,*54
1486134497.1,56343,11.94,72766.3,-6.75,-41.99,-41.99,0,*53